[[{"header":{"parameterUnit":"m.s-1","parameterCategory":1,"la1":30.2991,"la2":30.254,"lo1":-89.0895,"lo2":-89.0444,"dy":0.0017,"dx":0.0017,"nx":28,"ny":28,"refTime":"2025-05-29T09:00:00:Z","depth":0,"parameterNumber":2,"parameterNumberName":"U-component_of_WINDS"},"data":[0,0,0,0,0,0,0,0,0,0,0,0,0,0,0,0,0,0,0,0,0,0,0,0,0,0,0,0,0,0,0,0,0,0,0,0,0,0,0,0,0,0,0,0,0,0,0,0,0,0,0,0,0,0,0,0,0,0,2.1399,2.1399,0,2.1348,2.1348,2.1347,2.137,2.1372,2.1373,2.1374,2.1316,2.1313,2.131,0,0,0,0,0,0,0,0,0,0,0,0,0,2.1512,2.151,2.14,2.1399,2.1398,2.1348,2.1348,2.1347,2.137,2.1372,2.1373,2.1375,2.1317,2.1313,2.131,0,0,0,0,0,0,0,0,0,0,0,0,0,2.1462,2.1509,2.14,2.1404,2.1404,2.1349,2.1348,2.1347,2.137,2.1372,2.1374,2.1375,2.1318,2.1314,2.131,2.1245,0,0,2.1297,2.1295,0,0,0,0,0,0,0,0,2.1465,2.1458,2.1404,2.1404,2.1403,2.1368,2.1366,2.1312,2.1369,2.1382,2.1374,2.1376,2.1331,2.1326,2.1312,2.1242,2.124,2.1297,2.1294,2.1292,2.1291,0,0,0,0,0,0,0,2.1468,2.146,2.1379,2.1403,2.1403,2.1407,2.1402,2.1356,2.1346,2.1381,2.1383,2.1377,2.1331,2.1316,2.1311,2.1239,2.1297,2.1293,2.129,2.1289,2.1113,2.1111,0,0,0,0,0,0,2.1472,2.1463,2.1381,2.1378,2.144,2.1403,2.1398,2.1377,2.1347,2.1344,2.1375,2.1378,2.1322,2.1315,2.1309,2.1231,2.1292,2.1288,2.1286,2.1116,2.1113,2.1111,0,0,0,0,0,0,2.1475,2.1465,2.1383,2.1421,2.1411,2.1399,2.1376,2.1375,2.136,2.1342,2.134,2.1362,2.1323,2.1315,2.1261,2.1229,2.1286,2.1283,2.1118,2.1115,2.1112,2.1075,0,0,0,0,0,0,2.1478,2.1465,2.1442,2.142,2.1408,2.1338,2.1374,2.1373,2.1353,2.1357,2.1329,2.1326,2.1324,2.1267,2.1257,2.1224,2.1279,2.1121,2.1117,2.1113,2.1079,2.1071,2.1064,0,0,0,0,0,2.1482,2.1433,2.1441,2.1431,2.1379,2.1336,2.1329,2.1329,2.1351,2.1326,2.1315,2.1327,2.1235,2.1261,2.125,2.1216,2.1123,2.1118,2.1113,2.1082,2.1072,2.1064,0,0,0,0,0,0,2.1449,2.143,2.1439,2.1381,2.136,2.134,2.1309,2.1319,2.1289,2.1293,2.1293,2.1286,2.1231,2.1218,2.1249,2.1152,2.1182,2.1174,2.1162,2.1152,2.1145,2.1149,2.1276,0,0,0,0,0,2.1436,2.1404,2.1388,2.1339,2.1328,2.132,2.1301,2.1303,2.1281,2.1271,2.1256,2.1232,2.1197,2.1174,2.1142,2.1077,2.1071,2.1048,2.1041,2.1035,2.1028,2.0992,2.0981,2.1094,2.1095,2.1095,0,0,2.1407,2.1392,2.1372,2.1332,2.1316,2.1281,2.1312,2.1274,2.1248,2.1265,2.1214,2.1202,2.1175,2.1115,2.1088,2.1103,2.0995,2.1028,2.1024,2.102,2.0986,2.0975,2.0965,2.1091,2.1092,2.1092,0,0,2.1336,2.1323,2.128,2.1264,2.124,2.1235,2.1225,2.1203,2.1196,2.1146,2.1158,2.1125,2.1066,2.1046,2.1028,2.095,2.096,2.0939,2.0899,2.0864,2.0855,2.0848,2.0819,2.0808,2.0933,2.0933,2.0933,0,2.1302,2.1252,2.1256,2.1217,2.1199,2.1215,2.1171,2.1154,2.1119,2.1105,2.1123,2.1049,2.1032,2.0968,2.0949,2.0934,2.0921,2.0942,2.0857,2.0849,2.0841,2.0814,2.0803,2.0931,2.0931,2.0931,2.0931,0,2.1212,2.1177,2.1145,2.1113,2.1091,2.105,2.1046,2.1023,2.1027,2.102,2.0967,2.0948,2.0911,2.0896,2.0899,2.0832,2.0842,2.0858,2.0888,2.0828,2.0802,2.0792,2.0927,2.0928,2.0929,2.0929,0,0,2.1118,2.109,2.1078,2.1064,2.1039,2.1011,2.097,2.0936,2.0915,2.0891,2.0855,2.0805,2.082,2.08,2.0801,2.077,2.0708,2.079,2.0789,2.0774,2.0632,2.0619,2.0607,2.0715,2.0713,2.0712,2.0634,0,2.1045,2.0975,2.0977,2.0911,2.0878,2.0893,2.0856,2.0836,2.0828,2.0798,2.0788,2.0753,2.0776,2.0764,2.0734,2.0722,2.068,2.0728,2.068,2.0678,2.0685,2.0593,2.058,2.0507,2.0624,2.0622,2.0621,0,2.095,2.0925,2.0855,2.0835,2.0821,2.0789,2.0758,2.0729,2.0706,2.0702,2.068,2.0686,2.0642,2.0674,2.0613,2.0646,2.0626,2.0617,2.0614,2.0609,2.0645,2.0584,2.0484,2.0472,2.0605,2.0606,2.0607,0,2.0887,2.0836,2.0788,2.0775,2.0751,2.0727,2.0715,2.0695,2.0674,2.0646,2.0632,2.0599,2.0581,2.0554,2.055,2.0574,2.0487,2.052,2.0481,2.0481,2.0461,2.0462,2.0355,2.0451,2.0451,2.0451,2.0451,0,2.0804,2.0761,2.0759,2.0729,2.0681,2.0684,2.0635,2.0625,2.0606,2.0573,2.0584,2.0552,2.055,2.0517,2.0513,2.0462,2.0453,2.0448,2.0447,2.0446,2.0447,2.0432,2.0437,2.0448,2.0449,2.045,2.045,0,2.0726,2.0723,2.0671,2.0653,2.0647,2.0612,2.0595,2.0566,2.056,2.0518,2.0508,2.0498,2.046,2.0454,2.0408,2.0406,2.0344,2.0349,2.0352,2.0352,2.0314,2.0317,2.0193,2.0176,2.0284,2.0283,2.0282,0,2.0672,2.064,2.0619,2.0598,2.0586,2.0553,2.0533,2.0534,2.0512,2.0483,2.0456,2.042,2.039,2.0328,2.0315,2.028,2.0283,2.0242,2.0278,2.0278,2.0281,2.0283,2.0279,2.0235,2.0234,2.0233,2.0232,0,2.0578,2.0578,2.055,2.052,2.0496,2.0472,2.045,2.0432,2.043,2.0404,2.0367,2.0344,2.0298,2.0261,2.0226,2.0212,2.0221,2.0221,2.021,2.0208,2.0211,2.0208,2.0332,2.0224,2.0225,2.0225,2.0226,2.0226,2.051,2.0481,2.0462,2.0429,2.0413,2.0392,2.0363,2.0355,2.0324,2.0288,2.029,2.0248,2.0224,2.0179,2.0163,2.0129,2.0141,2.0126,2.0122,2.0117,2.0113,2.0218,2.0122,2.0122,2.0123,2.0123,2.0123,0,2.0415,2.0403,2.0374,2.0343,2.0317,2.033,2.0306,2.0282,2.0246,2.0224,2.0196,2.0152,2.0116,2.01,2.0065,2.004,2.0043,2.003,2.0031,2.0028,2.0104,2.0117,2.0028,2.0028,2.0028,2.0028,2.0029,2.0029,2.0362,2.0315,2.0313,2.0256,2.0245,2.0205,2.019,2.017,2.0153,2.0104,2.0075,2.0066,2.0047,2.0009,1.9976,1.9973,1.9958,1.9943,1.9941,2.0013,2.0022,2.0031,2.0043,1.9941,1.994,1.9867,1.9866,1.9866]},{"header":{"parameterUnit":"m.s-1","parameterCategory":1,"la1":30.2991,"la2":30.254,"lo1":-89.0895,"lo2":-89.0444,"dy":0.0017,"dx":0.0017,"nx":28,"ny":28,"refTime":"2025-05-29T09:00:00:Z","depth":0,"parameterNumber":3,"parameterNumberName":"V-component_of_WINDS"},"data":[0,0,0,0,0,0,0,0,0,0,0,0,0,0,0,0,0,0,0,0,0,0,0,0,0,0,0,0,0,0,0,0,0,0,0,0,0,0,0,0,0,0,0,0,0,0,0,0,0,0,0,0,0,0,0,0,0,0,-1.0424,-1.0425,0,-1.0503,-1.0504,-1.0505,-1.0527,-1.0527,-1.0526,-1.0526,-1.0601,-1.0604,-1.0606,0,0,0,0,0,0,0,0,0,0,0,0,0,-1.0288,-1.029,-1.0424,-1.0425,-1.0426,-1.0503,-1.0504,-1.0505,-1.0527,-1.0527,-1.0526,-1.0526,-1.06,-1.0603,-1.0606,0,0,0,0,0,0,0,0,0,0,0,0,0,-1.0355,-1.0291,-1.0424,-1.0446,-1.0449,-1.0503,-1.0504,-1.0506,-1.0527,-1.0527,-1.0526,-1.0525,-1.06,-1.0603,-1.0607,-1.0642,0,0,-1.0618,-1.0619,0,0,0,0,0,0,0,0,-1.0351,-1.036,-1.0442,-1.0445,-1.0448,-1.0505,-1.0484,-1.0551,-1.0528,-1.0498,-1.0526,-1.0525,-1.0569,-1.0575,-1.0591,-1.0645,-1.0649,-1.0618,-1.062,-1.0622,-1.0623,0,0,0,0,0,0,0,-1.0347,-1.0357,-1.0455,-1.0443,-1.0447,-1.0451,-1.046,-1.0497,-1.0536,-1.05,-1.0502,-1.0511,-1.0571,-1.0588,-1.0593,-1.065,-1.0618,-1.0621,-1.0623,-1.0625,-1.0739,-1.074,0,0,0,0,0,0,-1.0339,-1.0353,-1.0453,-1.0458,-1.0397,-1.0454,-1.0464,-1.0487,-1.0536,-1.0542,-1.0512,-1.0512,-1.0582,-1.0589,-1.0596,-1.0643,-1.0622,-1.0625,-1.0627,-1.0738,-1.0739,-1.074,0,0,0,0,0,0,-1.0336,-1.0347,-1.045,-1.0406,-1.0419,-1.0458,-1.0483,-1.0489,-1.0506,-1.0545,-1.0551,-1.0522,-1.0582,-1.0591,-1.0631,-1.0645,-1.0627,-1.063,-1.0737,-1.0739,-1.074,-1.0734,0,0,0,0,0,0,-1.0332,-1.0346,-1.0361,-1.0406,-1.0422,-1.0485,-1.0484,-1.0491,-1.0513,-1.0514,-1.0556,-1.0562,-1.0582,-1.0626,-1.0635,-1.065,-1.0633,-1.0736,-1.0738,-1.0739,-1.0734,-1.0735,-1.0737,0,0,0,0,0,-1.0327,-1.0354,-1.0361,-1.0373,-1.0441,-1.0485,-1.0494,-1.0518,-1.0514,-1.0529,-1.0554,-1.0561,-1.0642,-1.063,-1.064,-1.0657,-1.0735,-1.0737,-1.0739,-1.0733,-1.0735,-1.0737,0,0,0,0,0,0,-1.0306,-1.036,-1.0369,-1.0412,-1.0444,-1.0489,-1.0508,-1.0519,-1.0551,-1.0551,-1.0577,-1.0586,-1.0625,-1.0645,-1.063,-1.0695,-1.0689,-1.0693,-1.068,-1.0683,-1.0685,-1.0679,-1.0636,0,0,0,0,0,-1.0308,-1.0341,-1.0385,-1.0419,-1.0435,-1.0469,-1.0489,-1.0505,-1.0539,-1.0552,-1.0579,-1.061,-1.0643,-1.0664,-1.0696,-1.0737,-1.0747,-1.0753,-1.0755,-1.0756,-1.0759,-1.0784,-1.0788,-1.0747,-1.0747,-1.0747,0,0,-1.0309,-1.0343,-1.0361,-1.0416,-1.0443,-1.0476,-1.048,-1.0514,-1.0539,-1.0556,-1.0597,-1.0619,-1.0655,-1.0696,-1.0716,-1.0714,-1.0773,-1.0759,-1.0759,-1.0762,-1.0787,-1.0791,-1.0794,-1.0748,-1.0748,-1.0748,0,0,-1.0329,-1.0358,-1.039,-1.0418,-1.046,-1.0483,-1.049,-1.0534,-1.055,-1.0592,-1.0607,-1.0636,-1.0691,-1.0717,-1.0738,-1.0771,-1.0779,-1.078,-1.079,-1.0814,-1.0817,-1.082,-1.0833,-1.0838,-1.0784,-1.0784,-1.0784,0,-1.0325,-1.0378,-1.0405,-1.044,-1.0464,-1.0484,-1.0517,-1.0542,-1.0591,-1.0607,-1.0604,-1.0677,-1.0702,-1.0751,-1.076,-1.0775,-1.0785,-1.0776,-1.0815,-1.0818,-1.0821,-1.0834,-1.0839,-1.0784,-1.0784,-1.0784,-1.0784,0,-1.0371,-1.0408,-1.0429,-1.0479,-1.0505,-1.0539,-1.0571,-1.0594,-1.0608,-1.0631,-1.0674,-1.0706,-1.0746,-1.0759,-1.0771,-1.081,-1.0808,-1.081,-1.0805,-1.0825,-1.0837,-1.0842,-1.0783,-1.0783,-1.0783,-1.0783,0,0,-1.0379,-1.0447,-1.0455,-1.0479,-1.0528,-1.0556,-1.0591,-1.0633,-1.0652,-1.0686,-1.0716,-1.0764,-1.0767,-1.079,-1.0806,-1.0827,-1.0854,-1.0827,-1.0828,-1.0832,-1.09,-1.0899,-1.0905,-1.086,-1.0861,-1.0862,-1.0898,0,-1.0407,-1.0472,-1.0499,-1.0552,-1.0586,-1.0607,-1.0638,-1.0671,-1.0693,-1.0725,-1.0749,-1.0783,-1.0784,-1.0799,-1.082,-1.0846,-1.0868,-1.0844,-1.0888,-1.0889,-1.0879,-1.0911,-1.091,-1.0942,-1.0903,-1.0904,-1.0904,0,-1.0447,-1.0485,-1.0541,-1.0589,-1.0605,-1.0632,-1.0674,-1.0704,-1.0742,-1.0757,-1.0785,-1.08,-1.0837,-1.083,-1.0882,-1.0865,-1.0884,-1.09,-1.0902,-1.0907,-1.0898,-1.0918,-1.0953,-1.0958,-1.0912,-1.0911,-1.0911,0,-1.0449,-1.0513,-1.0557,-1.0577,-1.0633,-1.0652,-1.0676,-1.0713,-1.0738,-1.0774,-1.079,-1.0828,-1.085,-1.0879,-1.0905,-1.0897,-1.0954,-1.0949,-1.0968,-1.0967,-1.0979,-1.0978,-1.1018,-1.099,-1.099,-1.099,-1.099,0,-1.0477,-1.0511,-1.0559,-1.0586,-1.0625,-1.0656,-1.0693,-1.0718,-1.0752,-1.0783,-1.0802,-1.0831,-1.0863,-1.0895,-1.0915,-1.0956,-1.0965,-1.0978,-1.0983,-1.0977,-1.0975,-1.099,-1.0989,-1.0991,-1.0991,-1.0991,-1.099,0,-1.0486,-1.0519,-1.0568,-1.0619,-1.0632,-1.0659,-1.0702,-1.0728,-1.0753,-1.0792,-1.0803,-1.0841,-1.0881,-1.091,-1.0959,-1.0973,-1.1017,-1.1021,-1.1005,-1.1008,-1.1026,-1.1025,-1.1078,-1.1087,-1.1052,-1.1052,-1.1052,0,-1.0502,-1.0529,-1.0584,-1.0608,-1.0633,-1.067,-1.0697,-1.0728,-1.0754,-1.0801,-1.0822,-1.0864,-1.0899,-1.0961,-1.0992,-1.1031,-1.1037,-1.1053,-1.1043,-1.1037,-1.1039,-1.1038,-1.1041,-1.1055,-1.1055,-1.1055,-1.1055,0,-1.0527,-1.0544,-1.0582,-1.0627,-1.0658,-1.0694,-1.073,-1.0748,-1.0785,-1.0813,-1.0856,-1.0884,-1.0937,-1.0978,-1.1021,-1.1044,-1.1056,-1.1059,-1.1065,-1.106,-1.105,-1.1057,-1.1011,-1.1057,-1.1057,-1.1057,-1.1057,-1.1057,-1.0541,-1.0568,-1.0612,-1.0654,-1.0686,-1.072,-1.0748,-1.0778,-1.0815,-1.0863,-1.0878,-1.0923,-1.0961,-1.1021,-1.1045,-1.1079,-1.1078,-1.1088,-1.109,-1.1092,-1.1093,-1.1044,-1.1087,-1.1087,-1.1087,-1.1087,-1.1087,0,-1.0569,-1.06,-1.0638,-1.069,-1.0724,-1.0735,-1.0776,-1.0803,-1.0843,-1.0879,-1.0915,-1.0965,-1.1006,-1.1041,-1.1084,-1.1104,-1.1111,-1.1114,-1.1114,-1.1119,-1.109,-1.1081,-1.1109,-1.1109,-1.1109,-1.1109,-1.1109,-1.1109,-1.0588,-1.0634,-1.0656,-1.0718,-1.0748,-1.0794,-1.0817,-1.0848,-1.0878,-1.0934,-1.0969,-1.0993,-1.103,-1.1075,-1.1113,-1.1123,-1.1138,-1.114,-1.1151,-1.1123,-1.1121,-1.1118,-1.111,-1.1143,-1.1143,-1.1177,-1.1177,-1.1178]}]]